Tracking 19145 objects as of 25-Apr-2018
HD Live streaming from Space Station
objects crossing your sky now

FENGYUN 1C DEB

Track FENGYUN 1C DEB now!
10-day predictions


NORAD ID: 36194
Int'l Code: 1999-025DTT
Perigee: 623.4 km
Apogee: 668.0 km
Inclination: 99.0 °
Period: 97.5 minutes
Semi major axis: 7016 km
RCS: 0.0103 m2 (small)
Launch date: May 10, 1999
Source: People's Republic of China (PRC)
Launch site: Taiyaun Space Center, China (TSC)

Note: This is SATELLITE DEBRIS
aabbcc
Your satellite tracking list
Your tracking list is empty




NASA's NSSDC Master Catalog

Two Line Element Set (TLE):
1 36194U 99025DTT 18115.03222509  .00004930  00000-0  70120-3 0  9996
2 36194  99.0327  47.4174 0031782  61.9934 298.4482 14.77072482542858
Source of the keplerian elements: AFSPC